BREEZE-KM DEB, 41722

Orbit data source: Space-Track

BREEZE-KM DEB, 41722 is space debris in LEO originally from a launch on Tue, 31 Mar 2015 UTC launched from the Plesetsk Missile And Space Complex (PKMTR). Debris objects in space refer to the collection of defunct objects orbiting the Earth. Examples of debris include non-operational satellites, rocket bodies, and fragments generated from explosions, collisions, or faulty payload assembly.

Loading next visibility...
Identifier
41722, 2015-020K
Orbit
LEO
Country
Flag of CISCIS
Related business
Manufacturer
Khrunichev
Mission
Spacecraft
Bus & Motor
Unknown
Mass
Unknown
Launch date (UTC)
2015-03-31 (11 years ago)
Launch vehicle
Unknown
Launch site
Plesetsk Missile And Space Complex (PKMTR)
Object type
Payload
Rocket body
Debris
Shape & HBR
Unknown shape, 0.1 m
Radar Cross Section
Medium (>0.1 m² and <1 m²)

Expand to show TLE details & history
Last TLE update: 3 days ago

TLE from 3 days ago
0 BREEZE-KM DEB
1 41722U 15020K   26196.40899711  .00000043  00000-0  14395-3 0  9999
2 41722  82.4872 238.3156 0180391 146.3018 214.9703 12.70538658495382
Epoch: 2026-07-15T09:48Z
TLE epoch observation values (Epoch: 2026-07-15T09:48:57.350Z)
Latitude
0.00002°
Longitude
157.81142°
Altitude
1,497.998 km
Speed
7.062 km/s
True Right ascension
15h 53m 15s
True Declination
0° 00' 00"
Sunlit
Object was in daylight at epoch
Visualization orbit readout
Latitude
Unknown
Longitude
Unknown
Altitude
Unknown
Speed
Unknown
Apparent Right ascension
Unknown
Apparent Declination
Unknown
Sunlit
N/A
Visualization observer readout
Local Sidereal Time
15:32:27
Azimuth
Unknown
Elevation
Unknown
Doppler factor
Unknown
Orbital elements
Apogee altitude
1,516.954 km
Perigee altitude
1,237.161 km
Semi-major axis
7,755.195 km
Eccentricity
0.01804
Inclination
82.4872°
RAAN
238.3156°
Arg. of periapsis
146.3018°
True anomaly
213.80711°
Mean anomaly
214.9703°
Eccentric anomaly
214.38657°
Mean motion
3.178 °/min
Orbital period
113.28 mins
BSTAR
0.00014395
Loading maneuver chart data...
Computing Atmospheric mass density...
Loading historical data...
Loading historical data...
Loading historical data...
Loading historical data...
Loading historical data...
Loading historical data...
Loading historical data...

Documentation

Showing up to 5 results
|